Flag for Germany Weather past 2 weeks in Erding, Bavaria, Germany

Now
63 °F

Rain showers. Broken clouds.


Feels Like: 63 °F
Forecast: 53 / 72 °F
Wind: 15 mph from Northwest

Location: Munich / Franz Josef Strauss Airport

Current Time: May 30, 2015 at 11:37:27 AM

Latest Report: May 30, 2015 at 11:20 AM


Visibility: N/A

Pressure: 29.98 "Hg

Humidity: 68%

Dew point: 52 °F

Location of ErdingLocation

Historic Weather in Erding — Graph

°F

Erding temperature yesterday

Maximum temperature yesterday: 73 °F (at 4:50 PM)
Minimum temperature yesterday: 46 °F (at 5:20 AM)
Average temperature yesterday: 61 °F

Past Weeks' High & Low Weather Summary

 TemperatureHumidityPressure
High73 °F (May 18, 5:20 PM)100% (May 16, 12:20 AM)30.30 "Hg (May 16, 12:20 AM)
Low37 °F (May 28, 6:20 AM)35% (May 28, 5:20 PM)29.74 "Hg (May 18, 7:50 PM)
Average54 °F78%30.06 "Hg
* Reported May 15 10:20 AM — May 30 10:20 AM, Erding, Weather by CustomWeather, © 2015

Note: Actual official high and low records may vary slightly from our data, if they occured in-between our weather recording intervals... More about our weather records

Advertising

Erding weather history for previous 24 hours

 ConditionsComfort  
Time TempWeatherWind HumidityBarometerVisibility
10:20 AM
Sat, May 30
64 °FScattered showers. Broken clouds.17 mph56%29.98 "HgN/A
9:50 AM64 °FPartly sunny.20 mph56%29.98 "HgN/A
9:20 AM63 °FScattered clouds.18 mph68%29.98 "HgN/A
8:50 AM61 °FSunny.17 mph72%29.95 "Hg10 mi
8:20 AM59 °FScattered clouds.14 mph77%29.95 "HgN/A
7:50 AM59 °FScattered clouds.13 mph77%29.95 "HgN/A
7:20 AM57 °FScattered clouds.5 mph88%29.95 "HgN/A
6:50 AM55 °FScattered clouds.5 mph94%29.95 "HgN/A
6:20 AM55 °FSprinkles. Scattered clouds.7 mph94%29.95 "HgN/A
5:50 AM55 °FPassing clouds.5 mph88%29.95 "HgN/A
5:20 AM54 °FPartly cloudy.3 mph94%29.95 "HgN/A
4:50 AM54 °FPassing clouds.2 mph94%29.95 "HgN/A
4:20 AM55 °FPassing clouds.3 mph88%29.95 "HgN/A
3:50 AM55 °FSprinkles. Passing clouds.5 mph88%29.95 "HgN/A
3:20 AM55 °FPassing clouds.5 mph94%29.95 "HgN/A
2:50 AM55 °FPassing clouds.3 mph94%29.92 "HgN/A
2:20 AM55 °FSprinkles. Passing clouds.5 mph94%29.92 "HgN/A
1:50 AM57 °FClear.6 mph82%29.92 "Hg10 mi
1:20 AM55 °FClear.2 mph88%29.92 "Hg10 mi
12:50 AM59 °FPassing clouds.1 mph77%29.92 "HgN/A
12:20 AM59 °FClear.1 mph77%29.92 "Hg10 mi
11:50 PM
Fri, May 29
59 °FPassing clouds.6 mph77%29.92 "HgN/A
11:20 PM61 °FPassing clouds.3 mph72%29.89 "HgN/A
10:20 PM61 °FPassing clouds.5 mph72%29.86 "HgN/A
9:50 PM61 °FThundershowers. Scattered clouds.6 mph77%29.83 "HgN/A
9:20 PM61 °FPartly sunny.1 mph77%29.83 "HgN/A
8:50 PM64 °FScattered showers. Broken clouds.7 mph60%29.83 "HgN/A
8:20 PM66 °FPartly sunny.3 mph60%29.83 "HgN/A
7:50 PM66 °FScattered clouds.7 mph60%29.83 "HgN/A
7:20 PM70 °FScattered clouds.6 mph43%29.83 "HgN/A
6:50 PM72 °FPassing clouds.5 mph47%29.83 "HgN/A
6:20 PM72 °FPassing clouds.6 mph41%29.83 "HgN/A
5:50 PM73 °FPassing clouds.5 mph38%29.83 "HgN/A
5:20 PM73 °FSunny.2 mph41%29.83 "Hg10 mi
4:50 PM73 °FPassing clouds.5 mph38%29.86 "HgN/A
4:20 PM72 °FSunny.6 mph47%29.86 "Hg10 mi
3:50 PM72 °FPassing clouds.5 mph44%29.86 "HgN/A
3:20 PM72 °FSunny.2 mph44%29.86 "Hg10 mi
2:50 PM72 °FPassing clouds.5 mph44%29.89 "HgN/A
2:20 PM70 °FSunny.5 mph46%29.89 "Hg10 mi
1:50 PM70 °FPassing clouds.5 mph50%29.92 "HgN/A
1:20 PM68 °FPassing clouds.5 mph53%29.92 "HgN/A
12:50 PM68 °FPassing clouds.3 mph49%29.95 "HgN/A
12:20 PM68 °FPassing clouds.5 mph53%29.95 "HgN/A
11:50 AM66 °FSunny.2 mph52%29.95 "Hg10 mi
11:20 AM68 °FPassing clouds.5 mph49%29.95 "HgN/A
Weather by CustomWeather, © 2015

See weather overviewHow to use our weather pages